Time,TemperatureF,DewpointF,PressureIn,WindDirection,WindDirectionDegrees,WindSpeedMPH,WindSpeedGustMPH,Humidity,HourlyPrecipIn,Conditions,Clouds,dailyrainin,SolarRadiationWatts/m^2,SoftwareType,DateUTC
2013-08-27 00:02:00,77.1,67.0,30.09,SSE,162,5.0,6.0,71,0.00,,,0.00,0,Wunderground v.1.15,2013-08-27 05:02:00,
2013-08-27 00:08:00,77.1,67.0,30.09,SSE,164,5.0,6.0,71,0.00,,,0.00,0,Wunderground v.1.15,2013-08-27 05:08:00,
2013-08-27 00:14:00,77.1,67.0,30.09,SSE,162,5.0,5.0,71,0.00,,,0.00,0,Wunderground v.1.15,2013-08-27 05:14:00,
2013-08-27 00:20:00,76.9,66.8,30.09,SSE,150,5.0,6.0,71,0.00,,,0.00,0,Wunderground v.1.15,2013-08-27 05:20:00,
2013-08-27 00:26:00,76.9,66.8,30.09,SSE,150,5.0,5.0,71,0.00,,,0.00,0,Wunderground v.1.15,2013-08-27 05:26:00,
2013-08-27 00:32:00,76.9,67.2,30.08,South,171,5.0,5.0,72,0.00,,,0.00,0,Wunderground v.1.15,2013-08-27 05:32:00,
2013-08-27 00:38:00,76.7,67.4,30.08,SSE,160,5.0,7.0,73,0.00,,,0.00,0,Wunderground v.1.15,2013-08-27 05:38:00,
2013-08-27 00:44:00,76.7,67.4,30.08,SSE,162,5.0,5.0,73,0.00,,,0.00,0,Wunderground v.1.15,2013-08-27 05:44:00,
2013-08-27 00:50:00,76.6,67.3,30.08,South,170,5.0,6.0,73,0.00,,,0.00,0,Wunderground v.1.15,2013-08-27 05:50:00,
2013-08-27 00:57:00,76.5,67.6,30.08,SSW,204,5.0,6.0,74,0.00,,,0.00,0,Wunderground v.1.15,2013-08-27 05:57:00,
2013-08-27 01:02:00,76.5,67.6,30.08,South,179,4.0,4.0,74,0.00,,,0.00,0,Wunderground v.1.15,2013-08-27 06:02:00,
2013-08-27 01:08:00,76.4,67.5,30.08,SSE,160,4.0,4.0,74,0.00,,,0.00,0,Wunderground v.1.15,2013-08-27 06:08:00,
2013-08-27 01:14:00,76.3,67.4,30.08,South,181,4.0,4.0,74,0.00,,,0.00,0,Wunderground v.1.15,2013-08-27 06:14:00,
2013-08-27 01:20:00,76.2,67.3,30.08,SSE,167,4.0,4.0,74,0.00,,,0.00,0,Wunderground v.1.15,2013-08-27 06:20:00,
2013-08-27 01:26:00,76.1,67.6,30.08,SSE,166,4.0,6.0,75,0.00,,,0.00,0,Wunderground v.1.15,2013-08-27 06:26:00,
2013-08-27 01:32:00,75.9,67.4,30.08,SSE,164,3.0,3.0,75,0.00,,,0.00,0,Wunderground v.1.15,2013-08-27 06:32:00,
2013-08-27 01:38:00,75.7,67.2,30.08,South,170,3.0,4.0,75,0.00,,,0.00,0,Wunderground v.1.15,2013-08-27 06:38:00,
2013-08-27 01:44:00,75.6,67.5,30.07,SSE,166,3.0,9.0,76,0.00,,,0.00,0,Wunderground v.1.15,2013-08-27 06:44:00,
2013-08-27 01:50:00,75.4,67.3,30.07,SSE,166,4.0,9.0,76,0.00,,,0.00,0,Wunderground v.1.15,2013-08-27 06:50:00,
2013-08-27 01:56:00,75.4,67.3,30.07,SSE,156,4.0,9.0,76,0.00,,,0.00,0,Wunderground v.1.15,2013-08-27 06:56:00,
2013-08-27 02:02:00,75.4,67.3,30.07,SSE,156,4.0,9.0,76,0.00,,,0.00,0,Wunderground v.1.15,2013-08-27 07:02:00,
2013-08-27 02:08:00,75.4,67.3,30.07,SSE,156,5.0,9.0,76,0.00,,,0.00,0,Wunderground v.1.15,2013-08-27 07:08:00,
2013-08-27 02:14:00,75.4,67.3,30.07,SSE,162,4.0,9.0,76,0.00,,,0.00,0,Wunderground v.1.15,2013-08-27 07:14:00,
2013-08-27 02:20:00,75.1,67.4,30.07,SSE,160,3.0,9.0,77,0.00,,,0.00,0,Wunderground v.1.15,2013-08-27 07:20:00,
2013-08-27 02:26:00,74.8,67.1,30.07,SSE,156,3.0,9.0,77,0.00,,,0.00,0,Wunderground v.1.15,2013-08-27 07:26:00,
2013-08-27 02:32:00,74.5,67.2,30.07,SSE,155,4.0,4.0,78,0.00,,,0.00,0,Wunderground v.1.15,2013-08-27 07:32:00,
2013-08-27 02:38:00,74.1,67.2,30.08,SSE,166,3.0,9.0,79,0.00,,,0.00,0,Wunderground v.1.15,2013-08-27 07:38:00,
2013-08-27 02:44:00,73.7,66.8,30.08,South,173,2.0,9.0,79,0.00,,,0.00,0,Wunderground v.1.15,2013-08-27 07:44:00,
2013-08-27 02:50:00,73.3,66.8,30.08,South,173,2.0,9.0,80,0.00,,,0.00,0,Wunderground v.1.15,2013-08-27 07:50:00,
2013-08-27 02:56:00,73.1,66.9,30.08,South,173,2.0,9.0,81,0.00,,,0.00,0,Wunderground v.1.15,2013-08-27 07:56:00,
2013-08-27 03:02:00,72.9,66.7,30.08,South,173,2.0,9.0,81,0.00,,,0.00,0,Wunderground v.1.15,2013-08-27 08:02:00,
2013-08-27 03:08:00,72.8,67.0,30.08,South,172,3.0,9.0,82,0.00,,,0.00,0,Wunderground v.1.15,2013-08-27 08:08:00,
2013-08-27 03:14:00,72.5,66.3,30.08,South,172,2.0,9.0,81,0.00,,,0.00,0,Wunderground v.1.15,2013-08-27 08:14:00,
2013-08-27 03:20:00,72.3,66.8,30.08,South,172,2.0,9.0,83,0.00,,,0.00,0,Wunderground v.1.15,2013-08-27 08:20:00,
2013-08-27 03:26:00,72.3,66.8,30.08,South,172,2.0,9.0,83,0.00,,,0.00,0,Wunderground v.1.15,2013-08-27 08:26:00,
2013-08-27 03:32:00,72.2,66.7,30.08,South,172,2.0,9.0,83,0.00,,,0.00,0,Wunderground v.1.15,2013-08-27 08:32:00,
2013-08-27 03:38:00,72.1,66.6,30.08,South,172,2.0,9.0,83,0.00,,,0.00,0,Wunderground v.1.15,2013-08-27 08:38:00,
2013-08-27 03:44:00,71.9,66.5,30.08,South,172,2.0,9.0,83,0.00,,,0.00,0,Wunderground v.1.15,2013-08-27 08:44:00,
2013-08-27 03:50:00,71.9,66.8,30.08,South,172,2.0,9.0,84,0.00,,,0.00,0,Wunderground v.1.15,2013-08-27 08:50:00,
2013-08-27 03:56:00,71.9,66.8,30.08,South,172,1.0,9.0,84,0.00,,,0.00,0,Wunderground v.1.15,2013-08-27 08:56:00,
2013-08-27 04:02:00,71.8,66.7,30.08,South,172,1.0,9.0,84,0.00,,,0.00,0,Wunderground v.1.15,2013-08-27 09:02:00,
2013-08-27 04:08:00,71.7,66.6,30.08,South,172,2.0,9.0,84,0.00,,,0.00,0,Wunderground v.1.15,2013-08-27 09:08:00,
2013-08-27 04:14:00,71.6,66.5,30.08,South,172,2.0,9.0,84,0.00,,,0.00,0,Wunderground v.1.15,2013-08-27 09:14:00,
2013-08-27 04:20:00,71.4,66.3,30.08,South,172,2.0,9.0,84,0.00,,,0.00,0,Wunderground v.1.15,2013-08-27 09:20:00,
2013-08-27 04:26:00,71.3,66.2,30.08,South,172,2.0,9.0,84,0.00,,,0.00,0,Wunderground v.1.15,2013-08-27 09:26:00,
2013-08-27 04:32:00,71.1,66.4,30.08,South,172,1.0,9.0,85,0.00,,,0.00,0,Wunderground v.1.15,2013-08-27 09:32:00,
2013-08-27 04:38:00,70.7,65.6,30.08,South,172,2.0,9.0,84,0.00,,,0.00,0,Wunderground v.1.15,2013-08-27 09:38:00,
2013-08-27 04:44:00,70.5,65.8,30.08,South,172,1.0,9.0,85,0.00,,,0.00,0,Wunderground v.1.15,2013-08-27 09:44:00,
2013-08-27 04:50:00,70.4,66.0,30.08,South,172,2.0,9.0,86,0.00,,,0.00,0,Wunderground v.1.15,2013-08-27 09:50:00,
2013-08-27 04:56:00,70.2,65.8,30.08,South,172,2.0,9.0,86,0.00,,,0.00,0,Wunderground v.1.15,2013-08-27 09:56:00,
2013-08-27 05:02:00,70.3,65.9,30.08,South,172,1.0,9.0,86,0.00,,,0.00,0,Wunderground v.1.15,2013-08-27 10:02:00,
2013-08-27 05:08:00,70.2,65.8,30.08,South,172,1.0,9.0,86,0.00,,,0.00,0,Wunderground v.1.15,2013-08-27 10:08:00,
2013-08-27 05:14:00,70.1,65.4,30.08,South,172,1.0,9.0,85,0.00,,,0.00,0,Wunderground v.1.15,2013-08-27 10:14:00,
2013-08-27 05:20:00,69.7,65.0,30.09,South,172,1.0,9.0,85,0.00,,,0.00,0,Wunderground v.1.15,2013-08-27 10:20:00,
2013-08-27 05:26:00,69.4,65.0,30.08,South,172,1.0,9.0,86,0.00,,,0.00,0,Wunderground v.1.15,2013-08-27 10:26:00,
2013-08-27 05:32:00,69.5,65.1,30.08,South,172,1.0,9.0,86,0.00,,,0.00,0,Wunderground v.1.15,2013-08-27 10:32:00,
2013-08-27 05:38:00,69.5,65.1,30.09,South,172,2.0,9.0,86,0.00,,,0.00,0,Wunderground v.1.15,2013-08-27 10:38:00,
2013-08-27 05:44:00,69.5,65.1,30.09,South,172,3.0,9.0,86,0.00,,,0.00,0,Wunderground v.1.15,2013-08-27 10:44:00,
2013-08-27 05:50:00,69.4,65.0,30.09,SSE,160,3.0,9.0,86,0.00,,,0.00,0,Wunderground v.1.15,2013-08-27 10:50:00,
2013-08-27 05:56:00,69.5,65.1,30.09,SSE,158,4.0,9.0,86,0.00,,,0.00,0,Wunderground v.1.15,2013-08-27 10:56:00,
2013-08-27 06:02:00,69.6,65.2,30.09,SSE,158,3.0,3.0,86,0.00,,,0.00,0,Wunderground v.1.15,2013-08-27 11:02:00,
2013-08-27 06:08:00,69.6,65.2,30.09,SSE,158,2.0,9.0,86,0.00,,,0.00,0,Wunderground v.1.15,2013-08-27 11:08:00,
2013-08-27 06:14:00,69.4,65.0,30.09,SSE,158,2.0,9.0,86,0.00,,,0.00,0,Wunderground v.1.15,2013-08-27 11:14:00,
2013-08-27 06:20:00,69.3,64.9,30.09,SSE,158,2.0,9.0,86,0.00,,,0.00,0,Wunderground v.1.15,2013-08-27 11:20:00,
2013-08-27 06:26:00,69.1,64.7,30.09,SSE,162,2.0,9.0,86,0.00,,,0.00,0,Wunderground v.1.15,2013-08-27 11:26:00,
2013-08-27 06:32:00,69.0,64.6,30.09,SSE,162,2.0,9.0,86,0.00,,,0.00,0,Wunderground v.1.15,2013-08-27 11:32:00,
2013-08-27 06:38:00,69.0,64.6,30.09,SSE,162,2.0,9.0,86,0.00,,,0.00,0,Wunderground v.1.15,2013-08-27 11:38:00,
2013-08-27 06:44:00,69.0,65.0,30.09,SSE,162,2.0,9.0,87,0.00,,,0.00,0,Wunderground v.1.15,2013-08-27 11:44:00,
2013-08-27 06:50:00,68.8,64.4,30.09,SSE,162,1.0,9.0,86,0.00,,,0.00,0,Wunderground v.1.15,2013-08-27 11:50:00,
2013-08-27 06:56:00,68.8,64.8,30.09,SSE,162,1.0,9.0,87,0.00,,,0.00,0,Wunderground v.1.15,2013-08-27 11:56:00,
2013-08-27 07:02:00,68.6,64.2,30.09,SSE,162,1.0,1.0,86,0.00,,,0.00,7,Wunderground v.1.15,2013-08-27 12:02:00,
2013-08-27 07:08:00,68.7,64.7,30.09,SSE,162,1.0,9.0,87,0.00,,,0.00,11,Wunderground v.1.15,2013-08-27 12:08:00,
2013-08-27 07:14:00,68.6,64.6,30.09,SSE,162,1.0,9.0,87,0.00,,,0.00,14,Wunderground v.1.15,2013-08-27 12:14:00,
2013-08-27 07:20:00,68.8,64.8,30.10,SSE,163,0.0,9.0,87,0.00,,,0.00,16,Wunderground v.1.15,2013-08-27 12:20:00,
2013-08-27 07:26:00,69.0,65.0,30.09,SSE,164,0.0,9.0,87,0.00,,,0.00,19,Wunderground v.1.15,2013-08-27 12:26:00,
2013-08-27 07:32:00,69.3,65.3,30.10,South,170,1.0,9.0,87,0.00,,,0.00,25,Wunderground v.1.15,2013-08-27 12:32:00,
2013-08-27 07:38:00,69.7,65.7,30.09,South,176,2.0,9.0,87,0.00,,,0.00,53,Wunderground v.1.15,2013-08-27 12:38:00,
2013-08-27 07:44:00,70.3,65.9,30.09,South,176,1.0,9.0,86,0.00,,,0.00,63,Wunderground v.1.15,2013-08-27 12:44:00,
2013-08-27 07:50:00,71.0,66.6,30.09,South,181,1.0,9.0,86,0.00,,,0.00,79,Wunderground v.1.15,2013-08-27 12:50:00,
2013-08-27 07:56:00,71.7,66.9,30.09,SSW,194,3.0,9.0,85,0.00,,,0.00,97,Wunderground v.1.15,2013-08-27 12:56:00,
2013-08-27 08:02:00,72.4,66.9,30.09,SSW,194,3.0,3.0,83,0.00,,,0.00,113,Wunderground v.1.15,2013-08-27 13:02:00,
2013-08-27 08:08:00,73.0,67.2,30.09,South,172,3.0,9.0,82,0.00,,,0.00,137,Wunderground v.1.15,2013-08-27 13:08:00,
2013-08-27 08:14:00,73.3,67.1,30.09,SSW,193,3.0,9.0,81,0.00,,,0.00,155,Wunderground v.1.15,2013-08-27 13:14:00,
2013-08-27 08:20:00,73.8,67.6,30.09,South,179,3.0,9.0,81,0.00,,,0.00,176,Wunderground v.1.15,2013-08-27 13:20:00,
2013-08-27 08:26:00,74.3,67.7,30.09,SSW,210,4.0,9.0,80,0.00,,,0.00,195,Wunderground v.1.15,2013-08-27 13:26:00,
2013-08-27 08:32:00,74.9,67.9,30.09,SSW,204,4.0,9.0,79,0.00,,,0.00,216,Wunderground v.1.15,2013-08-27 13:32:00,
2013-08-27 08:38:00,75.5,67.8,30.09,SSW,195,4.0,9.0,77,0.00,,,0.00,241,Wunderground v.1.15,2013-08-27 13:38:00,
2013-08-27 08:44:00,75.9,67.8,30.10,SSW,201,5.0,5.0,76,0.00,,,0.00,258,Wunderground v.1.15,2013-08-27 13:44:00,
2013-08-27 08:50:00,76.4,67.9,30.09,SSW,201,4.0,9.0,75,0.00,,,0.00,279,Wunderground v.1.15,2013-08-27 13:50:00,
2013-08-27 08:56:00,76.9,67.6,30.09,SSW,200,4.0,9.0,73,0.00,,,0.00,295,Wunderground v.1.15,2013-08-27 13:56:00,
2013-08-27 09:02:00,77.4,67.3,30.09,South,190,4.0,9.0,71,0.00,,,0.00,315,Wunderground v.1.15,2013-08-27 14:02:00,
2013-08-27 09:08:00,78.0,67.8,30.09,SSW,192,4.0,9.0,71,0.00,,,0.00,334,Wunderground v.1.15,2013-08-27 14:08:00,
2013-08-27 09:14:00,78.7,67.7,30.09,SSW,197,4.0,9.0,69,0.00,,,0.00,353,Wunderground v.1.15,2013-08-27 14:14:00,
2013-08-27 09:20:00,79.3,67.8,30.10,SSW,210,5.0,9.0,68,0.00,,,0.00,374,Wunderground v.1.15,2013-08-27 14:20:00,
2013-08-27 09:26:00,79.8,68.3,30.09,South,177,5.0,9.0,68,0.00,,,0.00,392,Wunderground v.1.15,2013-08-27 14:26:00,
2013-08-27 09:32:00,80.4,67.1,30.10,South,189,4.0,4.0,64,0.00,,,0.00,408,Wunderground v.1.15,2013-08-27 14:32:00,
2013-08-27 09:38:00,81.1,68.7,30.10,SSW,210,4.0,9.0,66,0.00,,,0.00,427,Wunderground v.1.15,2013-08-27 14:38:00,
2013-08-27 09:44:00,81.6,67.3,30.10,SSW,195,4.0,9.0,62,0.00,,,0.00,446,Wunderground v.1.15,2013-08-27 14:44:00,
2013-08-27 09:50:00,82.1,68.3,30.10,SSW,193,4.0,9.0,63,0.00,,,0.00,464,Wunderground v.1.15,2013-08-27 14:50:00,
2013-08-27 09:56:00,82.4,67.6,30.10,South,183,5.0,9.0,61,0.00,,,0.00,482,Wunderground v.1.15,2013-08-27 14:56:00,
2013-08-27 10:02:00,82.8,67.5,30.10,South,175,6.0,6.0,60,0.00,,,0.00,499,Wunderground v.1.15,2013-08-27 15:02:00,
2013-08-27 10:08:00,83.2,67.4,30.10,South,189,5.0,9.0,59,0.00,,,0.00,515,Wunderground v.1.15,2013-08-27 15:08:00,
2013-08-27 10:14:00,83.4,67.1,30.10,SSE,166,5.0,9.0,58,0.00,,,0.00,534,Wunderground v.1.15,2013-08-27 15:14:00,
2013-08-27 10:20:00,83.6,66.8,30.10,SSW,207,6.0,9.0,57,0.00,,,0.00,547,Wunderground v.1.15,2013-08-27 15:20:00,
2013-08-27 10:26:00,84.2,68.3,30.10,South,185,5.0,9.0,59,0.00,,,0.00,563,Wunderground v.1.15,2013-08-27 15:26:00,
2013-08-27 10:32:00,84.7,67.8,30.10,SSW,198,4.0,9.0,57,0.00,,,0.00,580,Wunderground v.1.15,2013-08-27 15:32:00,
2013-08-27 10:38:00,84.6,68.7,30.10,SSW,211,5.0,9.0,59,0.00,,,0.00,594,Wunderground v.1.15,2013-08-27 15:38:00,
2013-08-27 10:44:00,85.1,68.2,30.10,SSW,208,6.0,8.0,57,0.00,,,0.00,612,Wunderground v.1.15,2013-08-27 15:44:00,
2013-08-27 10:50:00,85.6,67.6,30.10,SW,227,7.0,10.0,55,0.00,,,0.00,626,Wunderground v.1.15,2013-08-27 15:50:00,
2013-08-27 10:56:00,86.0,69.5,30.10,SSW,193,6.0,9.0,58,0.00,,,0.00,640,Wunderground v.1.15,2013-08-27 15:56:00,
2013-08-27 11:02:00,86.2,68.1,30.11,South,181,6.0,6.0,55,0.00,,,0.00,656,Wunderground v.1.15,2013-08-27 16:02:00,
2013-08-27 11:08:00,86.2,67.1,30.10,WSW,241,6.0,9.0,53,0.00,,,0.00,666,Wunderground v.1.15,2013-08-27 16:08:00,
2013-08-27 11:14:00,87.0,69.9,30.10,SSW,198,6.0,9.0,57,0.00,,,0.00,677,Wunderground v.1.15,2013-08-27 16:14:00,
2013-08-27 11:20:00,87.4,68.7,30.11,South,185,6.0,9.0,54,0.00,,,0.00,693,Wunderground v.1.15,2013-08-27 16:20:00,
2013-08-27 11:26:00,87.6,67.2,30.10,SSW,209,7.0,11.0,51,0.00,,,0.00,703,Wunderground v.1.15,2013-08-27 16:26:00,
2013-08-27 11:32:00,87.7,68.4,30.10,SSW,195,6.0,6.0,53,0.00,,,0.00,712,Wunderground v.1.15,2013-08-27 16:32:00,
2013-08-27 11:40:00,88.5,68.6,30.10,South,176,4.0,12.0,52,0.00,,,0.00,733,Wunderground v.1.15,2013-08-27 16:40:00,
2013-08-27 11:46:00,88.5,67.5,30.10,SW,225,5.0,9.0,50,0.00,,,0.00,740,Wunderground v.1.15,2013-08-27 16:46:00,
2013-08-27 11:52:00,89.0,67.4,30.10,SSW,209,5.0,9.0,49,0.00,,,0.00,754,Wunderground v.1.15,2013-08-27 16:52:00,
2013-08-27 11:58:00,89.1,68.6,30.10,SW,225,5.0,9.0,51,0.00,,,0.00,763,Wunderground v.1.15,2013-08-27 16:58:00,
2013-08-27 12:04:00,89.2,67.5,30.10,South,181,7.0,9.0,49,0.00,,,0.00,763,Wunderground v.1.15,2013-08-27 17:04:00,
2013-08-27 12:10:00,89.4,67.1,30.10,South,191,6.0,9.0,48,0.00,,,0.00,777,Wunderground v.1.15,2013-08-27 17:10:00,
2013-08-27 12:16:00,89.9,67.6,30.09,South,177,6.0,11.0,48,0.00,,,0.00,788,Wunderground v.1.15,2013-08-27 17:16:00,
2013-08-27 12:22:00,90.1,68.4,30.09,South,190,5.0,5.0,49,0.00,,,0.00,798,Wunderground v.1.15,2013-08-27 17:22:00,
2013-08-27 12:28:00,90.4,66.8,30.09,SSW,204,4.0,9.0,46,0.00,,,0.00,793,Wunderground v.1.15,2013-08-27 17:28:00,
2013-08-27 12:34:00,90.7,67.7,30.09,SW,216,4.0,9.0,47,0.00,,,0.00,805,Wunderground v.1.15,2013-08-27 17:34:00,
2013-08-27 12:40:00,90.4,68.6,30.09,SSW,192,6.0,9.0,49,0.00,,,0.00,819,Wunderground v.1.15,2013-08-27 17:40:00,
2013-08-27 12:46:00,90.6,68.2,30.09,SSW,201,7.0,9.0,48,0.00,,,0.00,821,Wunderground v.1.15,2013-08-27 17:46:00,
2013-08-27 12:52:00,90.6,68.8,30.09,SSW,195,7.0,10.0,49,0.00,,,0.00,826,Wunderground v.1.15,2013-08-27 17:52:00,
2013-08-27 13:00:00,91.1,68.1,30.08,SSW,212,6.0,10.0,47,0.00,,,0.00,833,Wunderground v.1.15,2013-08-27 18:00:00,
2013-08-27 13:06:00,91.2,68.8,30.08,SSW,213,7.0,9.0,48,0.00,,,0.00,842,Wunderground v.1.15,2013-08-27 18:06:00,
2013-08-27 13:12:00,91.9,67.5,30.08,SW,217,7.0,11.0,45,0.00,,,0.00,856,Wunderground v.1.15,2013-08-27 18:12:00,
2013-08-27 13:18:00,91.9,66.2,30.07,South,190,6.0,11.0,43,0.00,,,0.00,863,Wunderground v.1.15,2013-08-27 18:18:00,
2013-08-27 13:24:00,92.2,66.5,30.07,South,184,5.0,9.0,43,0.00,,,0.00,861,Wunderground v.1.15,2013-08-27 18:24:00,
2013-08-27 13:30:00,92.2,66.5,30.07,SSE,166,5.0,9.0,43,0.00,,,0.00,918,Wunderground v.1.15,2013-08-27 18:30:00,
2013-08-27 13:36:00,92.5,63.9,30.07,South,177,6.0,10.0,39,0.00,,,0.00,951,Wunderground v.1.15,2013-08-27 18:36:00,
2013-08-27 13:42:00,91.9,61.9,30.07,SSW,206,6.0,6.0,37,0.00,,,0.00,898,Wunderground v.1.15,2013-08-27 18:42:00,
2013-08-27 13:48:00,92.3,63.0,30.06,SW,226,6.0,9.0,38,0.00,,,0.00,863,Wunderground v.1.15,2013-08-27 18:48:00,
2013-08-27 13:54:00,93.0,64.4,30.06,SSW,212,7.0,14.0,39,0.00,,,0.00,856,Wunderground v.1.15,2013-08-27 18:54:00,
2013-08-27 14:00:00,92.9,62.8,30.06,SSW,206,7.0,14.0,37,0.00,,,0.00,840,Wunderground v.1.15,2013-08-27 19:00:00,
2013-08-27 14:06:00,92.6,63.3,30.06,SSE,168,6.0,9.0,38,0.00,,,0.00,840,Wunderground v.1.15,2013-08-27 19:06:00,
2013-08-27 14:12:00,92.9,65.0,30.05,South,189,5.0,10.0,40,0.00,,,0.00,838,Wunderground v.1.15,2013-08-27 19:12:00,
2013-08-27 14:18:00,93.1,62.2,30.05,South,171,6.0,10.0,36,0.00,,,0.00,846,Wunderground v.1.15,2013-08-27 19:18:00,
2013-08-27 14:24:00,92.8,64.2,30.05,SSE,165,8.0,10.0,39,0.00,,,0.00,842,Wunderground v.1.15,2013-08-27 19:24:00,
2013-08-27 14:30:00,93.0,62.1,30.05,SW,223,9.0,10.0,36,0.00,,,0.00,828,Wunderground v.1.15,2013-08-27 19:30:00,
2013-08-27 14:36:00,93.2,64.6,30.05,SSW,197,6.0,9.0,39,0.00,,,0.00,823,Wunderground v.1.15,2013-08-27 19:36:00,
2013-08-27 14:42:00,93.1,61.4,30.05,SSW,196,6.0,6.0,35,0.00,,,0.00,803,Wunderground v.1.15,2013-08-27 19:42:00,
2013-08-27 14:48:00,92.8,61.1,30.05,South,178,7.0,9.0,35,0.00,,,0.00,800,Wunderground v.1.15,2013-08-27 19:48:00,
2013-08-27 14:54:00,92.8,64.2,30.05,South,169,8.0,12.0,39,0.00,,,0.00,803,Wunderground v.1.15,2013-08-27 19:54:00,
2013-08-27 15:00:00,93.3,62.4,30.04,SW,216,7.0,12.0,36,0.00,,,0.00,796,Wunderground v.1.15,2013-08-27 20:00:00,
2013-08-27 15:06:00,93.4,63.2,30.04,SSW,205,6.0,9.0,37,0.00,,,0.00,786,Wunderground v.1.15,2013-08-27 20:06:00,
2013-08-27 15:12:00,93.3,61.6,30.03,SSE,166,6.0,6.0,35,0.00,,,0.00,780,Wunderground v.1.15,2013-08-27 20:12:00,
2013-08-27 15:18:00,93.0,60.5,30.03,South,179,7.0,9.0,34,0.00,,,0.00,772,Wunderground v.1.15,2013-08-27 20:18:00,
2013-08-27 15:24:00,93.0,62.9,30.03,South,183,7.0,9.0,37,0.00,,,0.00,758,Wunderground v.1.15,2013-08-27 20:24:00,
2013-08-27 15:30:00,93.4,61.7,30.03,SSW,208,7.0,10.0,35,0.00,,,0.00,744,Wunderground v.1.15,2013-08-27 20:30:00,
2013-08-27 15:36:00,93.2,62.3,30.03,SW,222,8.0,9.0,36,0.00,,,0.00,737,Wunderground v.1.15,2013-08-27 20:36:00,
2013-08-27 15:42:00,93.1,60.6,30.03,South,186,7.0,7.0,34,0.00,,,0.00,724,Wunderground v.1.15,2013-08-27 20:42:00,
2013-08-27 15:48:00,93.0,62.1,30.03,SSE,168,6.0,9.0,36,0.00,,,0.00,719,Wunderground v.1.15,2013-08-27 20:48:00,
2013-08-27 15:54:00,93.0,65.8,30.03,SW,219,7.0,11.0,41,0.00,,,0.00,696,Wunderground v.1.15,2013-08-27 20:54:00,
2013-08-27 16:00:00,92.8,61.9,30.02,South,179,7.0,11.0,36,0.00,,,0.00,691,Wunderground v.1.15,2013-08-27 21:00:00,
2013-08-27 16:06:00,92.8,62.7,30.02,SSW,204,6.0,9.0,37,0.00,,,0.00,673,Wunderground v.1.15,2013-08-27 21:06:00,
2013-08-27 16:12:00,93.0,62.1,30.02,SW,220,6.0,6.0,36,0.00,,,0.00,668,Wunderground v.1.15,2013-08-27 21:12:00,
2013-08-27 16:22:00,93.2,63.1,30.02,SSW,197,7.0,7.0,37,0.00,,,0.00,629,Wunderground v.1.15,2013-08-27 21:22:00,
2013-08-27 16:36:00,92.3,61.5,30.01,SSW,202,8.0,9.0,36,0.00,,,0.00,605,Wunderground v.1.15,2013-08-27 21:36:00,
2013-08-27 16:42:00,92.3,62.3,30.02,South,170,7.0,7.0,37,0.00,,,0.00,587,Wunderground v.1.15,2013-08-27 21:42:00,
2013-08-27 16:48:00,92.4,63.1,30.02,SSE,165,6.0,9.0,38,0.00,,,0.00,570,Wunderground v.1.15,2013-08-27 21:48:00,
2013-08-27 16:54:00,92.4,63.9,30.02,South,178,6.0,9.0,39,0.00,,,0.00,550,Wunderground v.1.15,2013-08-27 21:54:00,
2013-08-27 17:00:00,92.4,62.4,30.01,South,182,6.0,9.0,37,0.00,,,0.00,536,Wunderground v.1.15,2013-08-27 22:00:00,
2013-08-27 17:06:00,92.5,62.4,30.01,SSW,193,6.0,9.0,37,0.00,,,0.00,519,Wunderground v.1.15,2013-08-27 22:06:00,
2013-08-27 17:12:00,92.5,63.2,30.01,SSW,197,6.0,9.0,38,0.00,,,0.00,501,Wunderground v.1.15,2013-08-27 22:12:00,
2013-08-27 17:18:00,92.2,62.9,30.01,South,189,6.0,9.0,38,0.00,,,0.00,482,Wunderground v.1.15,2013-08-27 22:18:00,
2013-08-27 17:24:00,91.9,63.4,30.01,South,178,7.0,13.0,39,0.00,,,0.00,468,Wunderground v.1.15,2013-08-27 22:24:00,
2013-08-27 17:30:00,91.8,63.3,30.01,South,173,7.0,13.0,39,0.00,,,0.00,462,Wunderground v.1.15,2013-08-27 22:30:00,
2013-08-27 17:36:00,91.6,63.1,30.01,SW,218,5.0,9.0,39,0.00,,,0.00,429,Wunderground v.1.15,2013-08-27 22:36:00,
2013-08-27 17:42:00,91.2,63.5,30.01,South,177,6.0,6.0,40,0.00,,,0.00,411,Wunderground v.1.15,2013-08-27 22:42:00,
2013-08-27 17:48:00,91.1,62.7,30.01,South,179,5.0,9.0,39,0.00,,,0.00,394,Wunderground v.1.15,2013-08-27 22:48:00,
2013-08-27 17:54:00,91.2,63.5,30.01,SSE,154,6.0,8.0,40,0.00,,,0.00,369,Wunderground v.1.15,2013-08-27 22:54:00,
2013-08-27 18:00:00,91.1,63.4,30.01,SSW,195,6.0,9.0,40,0.00,,,0.00,353,Wunderground v.1.15,2013-08-27 23:00:00,
2013-08-27 18:06:00,91.2,63.5,30.01,South,178,5.0,9.0,40,0.00,,,0.00,339,Wunderground v.1.15,2013-08-27 23:06:00,
2013-08-27 18:12:00,90.8,63.9,30.01,SSE,166,5.0,9.0,41,0.00,,,0.00,316,Wunderground v.1.15,2013-08-27 23:12:00,
2013-08-27 18:18:00,90.6,64.4,30.01,South,185,4.0,9.0,42,0.00,,,0.00,295,Wunderground v.1.15,2013-08-27 23:18:00,
2013-08-27 18:24:00,90.6,63.0,30.01,South,191,5.0,9.0,40,0.00,,,0.00,272,Wunderground v.1.15,2013-08-27 23:24:00,
2013-08-27 18:30:00,90.3,63.4,30.01,South,170,6.0,9.0,41,0.00,,,0.00,246,Wunderground v.1.15,2013-08-27 23:30:00,
2013-08-27 18:36:00,90.0,63.1,30.01,SSW,201,6.0,9.0,41,0.00,,,0.00,221,Wunderground v.1.15,2013-08-27 23:36:00,
2013-08-27 18:42:00,89.5,64.0,30.01,SSE,164,5.0,5.0,43,0.00,,,0.00,207,Wunderground v.1.15,2013-08-27 23:42:00,
2013-08-27 18:48:00,89.1,63.7,30.01,South,175,4.0,9.0,43,0.00,,,0.00,186,Wunderground v.1.15,2013-08-27 23:48:00,
2013-08-27 18:54:00,88.8,64.1,30.01,South,179,4.0,9.0,44,0.00,,,0.00,171,Wunderground v.1.15,2013-08-27 23:54:00,
2013-08-27 19:00:00,88.6,64.5,30.01,South,171,4.0,9.0,45,0.00,,,0.00,142,Wunderground v.1.15,2013-08-28 00:00:00,
2013-08-27 19:06:00,88.3,63.6,30.01,South,187,4.0,9.0,44,0.00,,,0.00,127,Wunderground v.1.15,2013-08-28 00:06:00,
2013-08-27 19:12:00,87.9,63.9,30.01,SSE,168,4.0,4.0,45,0.00,,,0.00,107,Wunderground v.1.15,2013-08-28 00:12:00,
2013-08-27 19:18:00,87.4,64.1,30.01,South,177,3.0,9.0,46,0.00,,,0.00,63,Wunderground v.1.15,2013-08-28 00:18:00,
2013-08-27 19:24:00,86.8,64.2,30.01,SSE,168,4.0,6.0,47,0.00,,,0.00,44,Wunderground v.1.15,2013-08-28 00:24:00,
2013-08-27 19:30:00,86.3,64.3,30.01,SSE,166,5.0,9.0,48,0.00,,,0.00,30,Wunderground v.1.15,2013-08-28 00:30:00,
2013-08-27 19:36:00,85.8,64.4,30.01,South,172,4.0,9.0,49,0.00,,,0.00,23,Wunderground v.1.15,2013-08-28 00:36:00,
2013-08-27 19:42:00,85.1,64.4,30.01,South,172,4.0,4.0,50,0.00,,,0.00,18,Wunderground v.1.15,2013-08-28 00:42:00,
2013-08-27 19:48:00,84.5,64.9,30.01,SSE,164,4.0,9.0,52,0.00,,,0.00,9,Wunderground v.1.15,2013-08-28 00:48:00,
2013-08-27 19:54:00,83.8,64.8,30.02,SSE,167,4.0,9.0,53,0.00,,,0.00,9,Wunderground v.1.15,2013-08-28 00:54:00,
2013-08-27 20:00:00,83.6,64.7,30.02,SSE,160,4.0,9.0,53,0.00,,,0.00,0,Wunderground v.1.15,2013-08-28 01:00:00,
2013-08-27 20:06:00,83.5,64.6,30.02,SSE,162,5.0,9.0,53,0.00,,,0.00,0,Wunderground v.1.15,2013-08-28 01:06:00,
2013-08-27 20:14:00,83.1,64.7,30.02,SSE,156,4.0,9.0,54,0.00,,,0.00,0,Wunderground v.1.15,2013-08-28 01:14:00,
2013-08-27 20:20:00,82.5,65.2,30.02,SSE,154,4.0,9.0,56,0.00,,,0.00,0,Wunderground v.1.15,2013-08-28 01:20:00,
2013-08-27 20:26:00,81.9,65.2,30.02,SSE,156,4.0,9.0,57,0.00,,,0.00,0,Wunderground v.1.15,2013-08-28 01:26:00,
2013-08-27 20:32:00,81.3,65.1,30.02,SSE,154,4.0,9.0,58,0.00,,,0.00,0,Wunderground v.1.15,2013-08-28 01:32:00,
2013-08-27 20:38:00,80.9,65.2,30.02,SSE,155,4.0,9.0,59,0.00,,,0.00,0,Wunderground v.1.15,2013-08-28 01:38:00,
2013-08-27 20:46:00,79.7,65.1,30.02,SSE,154,4.0,9.0,61,0.00,,,0.00,0,Wunderground v.1.15,2013-08-28 01:46:00,
2013-08-27 20:56:00,79.0,64.9,30.02,SSE,156,4.0,9.0,62,0.00,,,0.00,0,Wunderground v.1.15,2013-08-28 01:56:00,
2013-08-27 21:04:00,78.6,64.9,30.02,SSE,156,4.0,9.0,63,0.00,,,0.00,0,Wunderground v.1.15,2013-08-28 02:04:00,
2013-08-27 21:10:00,78.1,64.9,30.02,SSE,153,4.0,9.0,64,0.00,,,0.00,0,Wunderground v.1.15,2013-08-28 02:10:00,
2013-08-27 21:18:00,77.8,64.6,30.03,SSE,154,4.0,9.0,64,0.00,,,0.00,0,Wunderground v.1.15,2013-08-28 02:18:00,
2013-08-27 21:24:00,77.3,64.6,30.03,SSE,155,3.0,9.0,65,0.00,,,0.00,0,Wunderground v.1.15,2013-08-28 02:24:00,
2013-08-27 21:30:00,76.7,64.5,30.03,SSE,156,3.0,9.0,66,0.00,,,0.00,0,Wunderground v.1.15,2013-08-28 02:30:00,
2013-08-27 21:36:00,76.1,64.3,30.03,SSE,156,2.0,9.0,67,0.00,,,0.00,0,Wunderground v.1.15,2013-08-28 02:36:00,
2013-08-27 21:42:00,76.1,64.3,30.03,SSE,156,3.0,3.0,67,0.00,,,0.00,0,Wunderground v.1.15,2013-08-28 02:42:00,
2013-08-27 21:48:00,76.0,64.2,30.03,SSE,156,3.0,9.0,67,0.00,,,0.00,0,Wunderground v.1.15,2013-08-28 02:48:00,
2013-08-27 21:54:00,76.0,64.2,30.03,SSE,156,3.0,9.0,67,0.00,,,0.00,0,Wunderground v.1.15,2013-08-28 02:54:00,
2013-08-27 22:00:00,76.2,64.4,30.04,SSE,154,4.0,9.0,67,0.00,,,0.00,0,Wunderground v.1.15,2013-08-28 03:00:00,
2013-08-27 22:06:00,76.2,64.4,30.04,SSE,153,4.0,9.0,67,0.00,,,0.00,0,Wunderground v.1.15,2013-08-28 03:06:00,
2013-08-27 22:12:00,75.9,64.2,30.04,SSE,153,4.0,9.0,67,0.00,,,0.00,0,Wunderground v.1.15,2013-08-28 03:12:00,
2013-08-27 22:18:00,75.5,64.2,30.04,SSE,153,4.0,9.0,68,0.00,,,0.00,0,Wunderground v.1.15,2013-08-28 03:18:00,
2013-08-27 22:26:00,75.4,64.5,30.04,SSE,154,4.0,9.0,69,0.00,,,0.00,0,Wunderground v.1.15,2013-08-28 03:26:00,
2013-08-27 22:32:00,75.3,64.4,30.04,SSE,152,5.0,9.0,69,0.00,,,0.00,0,Wunderground v.1.15,2013-08-28 03:32:00,
2013-08-27 22:38:00,75.1,64.6,30.04,SSE,151,5.0,9.0,70,0.00,,,0.00,0,Wunderground v.1.15,2013-08-28 03:38:00,
2013-08-27 22:44:00,74.8,64.8,30.04,SSE,159,5.0,9.0,71,0.00,,,0.00,0,Wunderground v.1.15,2013-08-28 03:44:00,
2013-08-27 22:50:00,74.9,64.9,30.04,SSE,164,5.0,9.0,71,0.00,,,0.00,0,Wunderground v.1.15,2013-08-28 03:50:00,
2013-08-27 22:56:00,74.8,65.2,30.04,SSE,166,4.0,9.0,72,0.00,,,0.00,0,Wunderground v.1.15,2013-08-28 03:56:00,
2013-08-27 23:04:00,74.5,65.3,30.04,SSE,166,4.0,9.0,73,0.00,,,0.00,0,Wunderground v.1.15,2013-08-28 04:04:00,
2013-08-27 23:06:00,74.4,65.2,30.04,SSE,166,4.0,9.0,73,0.00,,,0.00,0,Wunderground v.1.15,2013-08-28 04:06:00,
2013-08-27 23:10:00,74.4,65.6,30.04,SSE,165,4.0,9.0,74,0.00,,,0.00,0,Wunderground v.1.15,2013-08-28 04:10:00,
2013-08-27 23:16:00,74.3,65.5,30.04,SSE,165,3.0,9.0,74,0.00,,,0.00,0,Wunderground v.1.15,2013-08-28 04:16:00,
2013-08-27 23:22:00,74.1,65.7,30.04,SSE,165,3.0,9.0,75,0.00,,,0.00,0,Wunderground v.1.15,2013-08-28 04:22:00,
2013-08-27 23:26:00,73.9,65.5,30.04,SSE,165,3.0,9.0,75,0.00,,,0.00,0,Wunderground v.1.15,2013-08-28 04:26:00,
2013-08-27 23:32:00,73.6,65.6,30.04,SSE,165,2.0,9.0,76,0.00,,,0.00,0,Wunderground v.1.15,2013-08-28 04:32:00,
2013-08-27 23:38:00,73.4,65.7,30.04,SSE,165,2.0,9.0,77,0.00,,,0.00,0,Wunderground v.1.15,2013-08-28 04:38:00,
2013-08-27 23:40:00,73.3,65.7,30.04,SSE,165,2.0,9.0,77,0.00,,,0.00,0,Wunderground v.1.15,2013-08-28 04:40:00,
2013-08-27 23:46:00,73.2,65.9,30.04,SSE,165,2.0,9.0,78,0.00,,,0.00,0,Wunderground v.1.15,2013-08-28 04:46:00,
2013-08-27 23:52:00,73.1,66.2,30.04,SSE,165,2.0,9.0,79,0.00,,,0.00,0,Wunderground v.1.15,2013-08-28 04:52:00,
2013-08-27 23:58:00,73.1,66.2,30.04,SSE,165,3.0,9.0,79,0.00,,,0.00,0,Wunderground v.1.15,2013-08-28 04:58:00,